• In Hungary
  • List of Countries
  • For 7 days
  • Water Temperature
  • Satellite Maps
  • Weather Map
  • News
  • Weather Widgets
  • user-avatar
    Login

    Hourly Weather Kavarna

    Today, 20 August, Monday

    Time Temperature Precipitation Wind Pressure Humidity
    00:00 +23°C° 0 mm 4 mps 760 mmHg 83%
    01:00 +23°C° 0 mm 4 mps 760 mmHg 82%
    02:00 +23°C° 0 mm 4 mps 760 mmHg 82%
    03:00 +23°C° 0 mm 4 mps 760 mmHg 82%
    04:00 +22°C° 0 mm 5 mps 759 mmHg 82%
    05:00 +22°C° 0 mm 5 mps 759 mmHg 82%
    06:00 +25°C° 0 mm 5 mps 760 mmHg 74%
    07:00 +26°C° 0 mm 6 mps 760 mmHg 66%
    08:00 +28°C° 0 mm 7 mps 760 mmHg 56%
    09:00 +29°C° 0 mm 7 mps 760 mmHg 50%
    10:00 +30°C° 0 mm 7 mps 760 mmHg 45%
    11:00 +30°C° 0 mm 7 mps 760 mmHg 39%
    12:00 +32°C° 0 mm 7 mps 760 mmHg 39%
    13:00 +32°C° 0 mm 7 mps 760 mmHg 38%
    14:00 +32°C° 0 mm 7 mps 760 mmHg 38%
    15:00 +30°C° 0 mm 7 mps 759 mmHg 40%
    16:00 +29°C° 0 mm 6 mps 759 mmHg 42%
    17:00 +29°C° 0 mm 6 mps 759 mmHg 44%
    18:00 +27°C° 0 mm 6 mps 759 mmHg 50%
    19:00 +25°C° 0 mm 5 mps 759 mmHg 57%
    20:00 +23°C° 0 mm 4 mps 759 mmHg 64%
    21:00 +22°C° 0 mm 4 mps 759 mmHg 66%
    22:00 +22°C° 0 mm 4 mps 759 mmHg 68%
    23:00 +21°C° 0 mm 4 mps 759 mmHg 70%

    Tomorrow, 21 August, Tuesday

    Time Temperature Precipitation Wind Pressure Humidity
    00:00 +21°C° 0 mm 4 mps 759 mmHg 71%
    01:00 +21°C° 0 mm 4 mps 759 mmHg 71%
    02:00 +21°C° 0 mm 4 mps 759 mmHg 72%
    03:00 +20°C° 0 mm 4 mps 759 mmHg 72%
    04:00 +20°C° 0 mm 4 mps 759 mmHg 72%
    05:00 +20°C° 0 mm 5 mps 759 mmHg 73%
    06:00 +21°C° 0 mm 5 mps 759 mmHg 66%
    07:00 +23°C° 0 mm 5 mps 760 mmHg 60%
    08:00 +26°C° 0 mm 6 mps 760 mmHg 54%
    09:00 +27°C° 0 mm 6 mps 760 mmHg 49%
    10:00 +28°C° 0 mm 6 mps 760 mmHg 44%
    11:00 +30°C° 0 mm 6 mps 760 mmHg 39%
    12:00 +30°C° 0 mm 6 mps 760 mmHg 38%
    13:00 +32°C° 0 mm 6 mps 760 mmHg 36%
    14:00 +32°C° 0 mm 6 mps 759 mmHg 35%
    15:00 +30°C° 0 mm 6 mps 759 mmHg 36%
    16:00 +30°C° 0 mm 5 mps 759 mmHg 37%
    17:00 +29°C° 0 mm 5 mps 759 mmHg 38%
    18:00 +28°C° 0 mm 5 mps 759 mmHg 45%
    19:00 +26°C° 0 mm 4 mps 759 mmHg 52%
    20:00 +24°C° 0 mm 3 mps 760 mmHg 59%
    21:00 +22°C° 0 mm 3 mps 760 mmHg 61%
    22:00 +23°C° 0 mm 2 mps 760 mmHg 62%
    23:00 +23°C° 0 mm 1 mps 760 mmHg 64%

    Day after tomorrow, 22 August, Wednesday

    Time Temperature Precipitation Wind Pressure Humidity
    00:00 +23°C° 0 mm 2 mps 760 mmHg 62%
    01:00 +21°C° 0 mm 2 mps 760 mmHg 59%
    02:00 +21°C° 0 mm 2 mps 760 mmHg 57%
    03:00 +21°C° 0 mm 3 mps 760 mmHg 55%
    04:00 +21°C° 0 mm 4 mps 760 mmHg 53%
    05:00 +21°C° 0 mm 4 mps 760 mmHg 51%
    06:00 +22°C° 0 mm 4 mps 760 mmHg 48%
    07:00 +25°C° 0 mm 4 mps 760 mmHg 46%
    08:00 +26°C° 0 mm 4 mps 761 mmHg 44%
    09:00 +28°C° 0 mm 4 mps 761 mmHg 41%
    10:00 +30°C° 0 mm 4 mps 761 mmHg 38%
    11:00 +33°C° 0 mm 4 mps 761 mmHg 35%
    12:00 +33°C° 0 mm 4 mps 761 mmHg 35%
    13:00 +33°C° 0 mm 4 mps 761 mmHg 35%
    14:00 +34°C° 0 mm 5 mps 761 mmHg 35%
    15:00 +33°C° 0 mm 5 mps 760 mmHg 39%
    16:00 +32°C° 0 mm 5 mps 760 mmHg 43%
    17:00 +30°C° 0 mm 4 mps 760 mmHg 46%
    18:00 +29°C° 0 mm 4 mps 760 mmHg 56%
    19:00 +27°C° 0 mm 4 mps 761 mmHg 65%
    20:00 +25°C° 0 mm 3 mps 761 mmHg 75%
    21:00 +25°C° 0 mm 3 mps 761 mmHg 77%
    22:00 +25°C° 0 mm 3 mps 761 mmHg 79%
    23:00 +24°C° 0 mm 3 mps 761 mmHg 81%

    23 August, Thursday

    Time Temperature Precipitation Wind Pressure Humidity
    00:00 +23°C° 0 mm 4 mps 761 mmHg 80%
    01:00 +23°C° 0 mm 4 mps 761 mmHg 79%
    02:00 +23°C° 0 mm 5 mps 761 mmHg 78%
    03:00 +23°C° 0 mm 5 mps 761 mmHg 78%
    04:00 +23°C° 0 mm 5 mps 761 mmHg 79%
    05:00 +23°C° 0 mm 6 mps 760 mmHg 79%
    06:00 +24°C° 0.1 mm 6 mps 761 mmHg 73%
    07:00 +27°C° 0.1 mm 7 mps 761 mmHg 67%
    08:00 +28°C° 0.1 mm 7 mps 761 mmHg 61%
    09:00 +29°C° 0 mm 8 mps 761 mmHg 55%
    10:00 +31°C° 0 mm 8 mps 761 mmHg 50%
    11:00 +32°C° 0 mm 8 mps 761 mmHg 45%
    12:00 +32°C° 0 mm 8 mps 761 mmHg 45%
    13:00 +32°C° 0 mm 8 mps 760 mmHg 46%
    14:00 +32°C° 0 mm 8 mps 760 mmHg 46%
    15:00 +31°C° 0 mm 8 mps 760 mmHg 49%
    16:00 +29°C° 0 mm 8 mps 760 mmHg 52%
    17:00 +28°C° 0 mm 7 mps 760 mmHg 55%
    18:00 +27°C° 0 mm 7 mps 760 mmHg 63%
    19:00 +26°C° 0 mm 6 mps 760 mmHg 70%
    20:00 +23°C° 0 mm 5 mps 760 mmHg 77%
    21:00 +23°C° 0 mm 5 mps 760 mmHg 79%
    22:00 +23°C° 0 mm 5 mps 760 mmHg 81%
    23:00 +22°C° 0 mm 4 mps 760 mmHg 83%

    24 August, Friday

    Time Temperature Precipitation Wind Pressure Humidity
    00:00 +22°C° 0 mm 4 mps 760 mmHg 84%
    01:00 +22°C° 0 mm 4 mps 759 mmHg 84%
    02:00 +22°C° 0 mm 4 mps 759 mmHg 84%
    03:00 +22°C° 0 mm 4 mps 759 mmHg 85%
    04:00 +21°C° 0 mm 4 mps 759 mmHg 85%
    05:00 +21°C° 0 mm 4 mps 759 mmHg 86%
    06:00 +23°C° 0 mm 4 mps 759 mmHg 80%
    07:00 +25°C° 0 mm 4 mps 759 mmHg 75%
    08:00 +27°C° 0 mm 4 mps 759 mmHg 69%
    09:00 +28°C° 0 mm 5 mps 759 mmHg 63%
    10:00 +29°C° 0 mm 5 mps 759 mmHg 57%
    11:00 +30°C° 0 mm 5 mps 759 mmHg 50%
    12:00 +30°C° 0 mm 5 mps 759 mmHg 48%
    13:00 +30°C° 0 mm 6 mps 758 mmHg 45%
    14:00 +32°C° 0 mm 6 mps 758 mmHg 42%
    15:00 +30°C° 0 mm 6 mps 758 mmHg 44%
    16:00 +29°C° 0 mm 6 mps 758 mmHg 46%
    17:00 +29°C° 0 mm 6 mps 757 mmHg 48%
    18:00 +27°C° 0 mm 5 mps 757 mmHg 57%
    19:00 +25°C° 0 mm 4 mps 757 mmHg 66%
    20:00 +23°C° 0 mm 4 mps 757 mmHg 74%
    21:00 +22°C° 0 mm 3 mps 757 mmHg 77%
    22:00 +22°C° 0 mm 3 mps 757 mmHg 81%
    23:00 +21°C° 0 mm 2 mps 757 mmHg 84%

    25 August, Saturday

    Time Temperature Precipitation Wind Pressure Humidity
    00:00 +21°C° 0 mm 2 mps 757 mmHg 84%
    01:00 +21°C° 0 mm 2 mps 757 mmHg 85%
    02:00 +20°C° 0 mm 2 mps 756 mmHg 85%
    03:00 +20°C° 0 mm 3 mps 756 mmHg 85%
    04:00 +20°C° 0 mm 3 mps 756 mmHg 84%
    05:00 +19°C° 0 mm 4 mps 756 mmHg 83%
    06:00 +21°C° 0 mm 4 mps 756 mmHg 75%
    07:00 +22°C° 0 mm 4 mps 756 mmHg 66%
    08:00 +25°C° 0 mm 4 mps 757 mmHg 58%
    09:00 +27°C° 0 mm 3 mps 756 mmHg 52%
    10:00 +29°C° 0 mm 2 mps 756 mmHg 46%
    11:00 +31°C° 0 mm 2 mps 756 mmHg 41%
    12:00 +31°C° 0 mm 2 mps 756 mmHg 38%
    13:00 +32°C° 0 mm 2 mps 756 mmHg 36%
    14:00 +34°C° 0 mm 2 mps 755 mmHg 33%
    15:00 +32°C° 0 mm 2 mps 755 mmHg 36%
    16:00 +31°C° 0 mm 2 mps 755 mmHg 38%
    17:00 +31°C° 0 mm 3 mps 755 mmHg 41%
    18:00 +29°C° 0 mm 3 mps 755 mmHg 48%
    19:00 +27°C° 0 mm 2 mps 755 mmHg 56%
    20:00 +25°C° 0 mm 2 mps 755 mmHg 63%
    21:00 +25°C° 0 mm 2 mps 755 mmHg 64%
    22:00 +24°C° 0 mm 2 mps 755 mmHg 64%
    23:00 +24°C° 0 mm 2 mps 755 mmHg 65%
    Show more